Home > Weather > Stassfurt > Past weeks

Flag for Germany Weather for the Past 2 Weeks in Stassfurt, Saxony-Anhalt, Germany

Now
46 °F

Partly cloudy.


Feels Like: 38 °F
Forecast: 36 / 43 °F
Wind: 25 mph from Southwest

Location: Leipzig-Schkeuditz

Current Time: Feb 9, 2016 at 3:29:18 AM

Latest Report: Feb 9, 2016 at 2:50 AM


Visibility: N/A

Pressure: 29.45 "Hg

Humidity: 62%

Dew point: 34 °F

Location of StassfurtLocation

Historic Weather in Stassfurt — Graph

°F

Stassfurt Temperature Yesterday

Maximum temperature yesterday: 52 °F (at 12:20 PM)
Minimum temperature yesterday: 43 °F (at 1:20 AM)
Average temperature yesterday: 46 °F

High & Low Weather Summary for the Past Weeks

 TemperatureHumidityPressure
High54 °F (Jan 26, 12:50 PM)100% (Jan 25, 2:20 AM)30.30 "Hg (Jan 25, 2:20 AM)
Low34 °F (Jan 28, 10:20 PM)53% (Feb 3, 3:50 PM)29.36 "Hg (Feb 8, 2:50 PM)
Average44 °F79%29.97 "Hg
* Reported Jan 25 2:20 AM — Feb 9 2:20 AM, Stassfurt, Weather by CustomWeather, © 2016

Note: Actual official high and low records may vary slightly from our data, if they occured in-between our weather recording intervals... More about our weather records

Advertising

Stassfurt Weather History for the Previous 24 Hours

 ConditionsComfort  
Time TempWeatherWind HumidityBarometerVisibility
2:20 AM
Tue, Feb 9
46 °FPassing clouds.23 mph62%29.45 "HgN/A
1:50 AM45 °FClear.23 mph66%29.45 "Hg10 mi
1:20 AM45 °FClear.28 mph66%29.45 "Hg10 mi
12:50 AM45 °FClear.26 mph66%29.45 "Hg10 mi
12:20 AM45 °FClear.23 mph66%29.45 "Hg10 mi
11:50 PM
Mon, Feb 8
43 °FClear.21 mph71%29.42 "Hg10 mi
11:20 PM43 °FClear.18 mph71%29.45 "Hg10 mi
10:50 PM43 °FClear.22 mph71%29.45 "Hg10 mi
10:20 PM43 °FClear.22 mph71%29.45 "Hg10 mi
9:50 PM43 °FClear.21 mph76%29.45 "Hg10 mi
9:20 PM43 °FClear.20 mph76%29.42 "Hg10 mi
8:50 PM43 °FClear.21 mph76%29.42 "Hg10 mi
8:20 PM45 °FClear.26 mph71%29.42 "Hg10 mi
7:50 PM46 °FClear.25 mph66%29.39 "Hg10 mi
7:20 PM46 °FClear.18 mph71%29.39 "Hg10 mi
6:50 PM45 °FClear.15 mph76%29.39 "Hg10 mi
6:20 PM45 °FPartly cloudy.16 mph76%29.39 "HgN/A
5:50 PM45 °FPartly cloudy.18 mph76%29.39 "HgN/A
5:20 PM43 °FPassing clouds.20 mph81%29.36 "HgN/A
4:50 PM43 °FSprinkles. Broken clouds.22 mph87%29.36 "HgN/A
4:20 PM50 °FSprinkles. Partly sunny.24 mph71%29.36 "HgN/A
3:50 PM50 °FPartly sunny.22 mph71%29.36 "HgN/A
3:20 PM50 °FBroken clouds.24 mph71%29.36 "HgN/A
2:50 PM52 °FSprinkles. Partly sunny.21 mph62%29.36 "HgN/A
2:20 PM52 °FPartly sunny.20 mph62%29.39 "HgN/A
1:50 PM52 °FBroken clouds.30 mph62%29.39 "HgN/A
1:20 PM52 °FBroken clouds.28 mph62%29.39 "HgN/A
12:50 PM52 °FPartly sunny.25 mph62%29.39 "HgN/A
12:20 PM52 °FBroken clouds.26 mph62%29.42 "HgN/A
11:50 AM50 °FBroken clouds.21 mph62%29.42 "HgN/A
11:20 AM48 °FPartly sunny.22 mph66%29.45 "HgN/A
10:50 AM46 °FPartly sunny.25 mph66%29.45 "HgN/A
10:20 AM46 °FPartly sunny.23 mph66%29.47 "HgN/A
9:50 AM46 °FPartly sunny.28 mph66%29.47 "HgN/A
9:20 AM46 °FSunny.16 mph66%29.50 "Hg10 mi
8:50 AM45 °FSunny.14 mph66%29.50 "Hg10 mi
8:20 AM45 °FSunny.16 mph66%29.53 "Hg10 mi
7:50 AM45 °FSunny.17 mph66%29.53 "Hg10 mi
7:20 AM45 °FPassing clouds.20 mph66%29.53 "HgN/A
6:50 AM45 °FClear.24 mph66%29.53 "Hg10 mi
6:20 AM43 °FClear.15 mph71%29.56 "Hg10 mi
5:50 AM43 °FPassing clouds.17 mph71%29.59 "HgN/A
5:20 AM43 °FPassing clouds.17 mph71%29.62 "HgN/A
4:20 AM43 °FClear.15 mph71%29.65 "Hg10 mi
3:50 AM43 °FClear.13 mph76%29.65 "Hg10 mi
Weather by CustomWeather, © 2016

See weather overviewHow to use our weather pages